Location: Heidgraben
(53.7081°N, 9.6576°E)
Time: 04:25:20
(UTC+00:00)

Cosmos 1408 Rocket - Pass Details

Date: 05 July 2020
Orbit: 601 x 630 km, 82.6° (Epoch: 06 August)

Event Time Altitude Azimuth Distance (km) Brightness Sun altitude
Exits shadow 23:35:56 20° 202° (SSW) 1,430 4.9 -13.6°
Maximum altitude 23:38:54 70° 283° (WNW) 665 3.7 -13.6°
Drops below altitude 10° 23:43:20 10° 7° (N) 2,006 7.7 -13.5°
Sets 23:45:36 0° 10° (N) 2,922 9.0 -13.5°
